Time,TemperatureF,DewpointF,PressureIn,WindDirection,WindDirectionDegrees,WindSpeedMPH,WindSpeedGustMPH,Humidity,HourlyPrecipIn,Conditions,Clouds,dailyrainin,SoftwareType,DateUTC
2013-01-26 00:00:00,12.9,4.3,29.93,NE,50,1.0,1.0,68,0.00,,,0.00,Wunderground v.1.15,2013-01-26 05:00:00,
2013-01-26 00:10:00,12.8,4.2,29.93,NE,50,0.0,0.0,68,0.00,,,0.00,Wunderground v.1.15,2013-01-26 05:10:00,
2013-01-26 00:20:00,12.9,4.3,29.93,NE,50,0.0,0.0,68,0.00,,,0.00,Wunderground v.1.15,2013-01-26 05:20:00,
2013-01-26 00:30:00,13.0,4.1,29.94,NE,50,0.0,0.0,67,0.00,,,0.00,Wunderground v.1.15,2013-01-26 05:30:00,
2013-01-26 00:40:00,13.1,4.5,29.94,NE,50,0.0,0.0,68,0.00,,,0.00,Wunderground v.1.15,2013-01-26 05:40:00,
2013-01-26 00:50:00,13.2,4.6,29.93,NE,50,0.0,0.0,68,0.00,,,0.00,Wunderground v.1.15,2013-01-26 05:50:00,
2013-01-26 01:00:00,13.3,4.1,29.94,NE,50,0.0,0.0,66,0.00,,,0.00,Wunderground v.1.15,2013-01-26 06:00:00,
2013-01-26 01:10:00,13.3,3.4,29.94,NE,50,0.0,0.0,64,0.00,,,0.00,Wunderground v.1.15,2013-01-26 06:10:00,
2013-01-26 01:20:00,13.4,3.1,29.94,NE,53,0.0,0.0,63,0.00,,,0.00,Wunderground v.1.15,2013-01-26 06:20:00,
2013-01-26 01:30:00,13.3,3.0,29.93,NE,53,0.0,0.0,63,0.00,,,0.00,Wunderground v.1.15,2013-01-26 06:30:00,
2013-01-26 01:40:00,13.4,2.1,29.93,East,86,1.0,1.0,60,0.00,,,0.00,Wunderground v.1.15,2013-01-26 06:40:00,
2013-01-26 01:50:00,13.5,1.1,29.93,South,177,1.0,1.0,57,0.00,,,0.00,Wunderground v.1.15,2013-01-26 06:50:00,
2013-01-26 02:00:00,13.4,-0.2,29.93,South,172,1.0,1.0,54,0.00,,,0.00,Wunderground v.1.15,2013-01-26 07:00:00,
2013-01-26 02:10:00,13.4,-0.2,29.92,SSE,162,1.0,2.0,54,0.00,,,0.00,Wunderground v.1.15,2013-01-26 07:10:00,
2013-01-26 02:20:00,13.3,-0.3,29.92,ESE,113,1.0,1.0,54,0.00,,,0.00,Wunderground v.1.15,2013-01-26 07:20:00,
2013-01-26 02:30:00,13.1,0.3,29.91,ESE,115,0.0,0.0,56,0.00,,,0.00,Wunderground v.1.15,2013-01-26 07:30:00,
2013-01-26 02:40:00,13.0,1.0,29.91,ESE,114,0.0,0.0,58,0.00,,,0.00,Wunderground v.1.15,2013-01-26 07:40:00,
2013-01-26 02:50:00,12.8,1.5,29.91,ESE,115,0.0,0.0,60,0.00,,,0.00,Wunderground v.1.15,2013-01-26 07:50:00,
2013-01-26 03:00:00,12.6,1.3,29.91,ESE,113,0.0,0.0,60,0.00,,,0.00,Wunderground v.1.15,2013-01-26 08:00:00,
2013-01-26 03:10:00,12.4,1.5,29.90,ESE,113,0.0,0.0,61,0.00,,,0.00,Wunderground v.1.15,2013-01-26 08:10:00,
2013-01-26 03:20:00,12.4,1.5,29.90,ESE,113,0.0,0.0,61,0.00,,,0.00,Wunderground v.1.15,2013-01-26 08:20:00,
2013-01-26 03:30:00,12.4,2.2,29.90,ESE,114,0.0,0.0,63,0.00,,,0.00,Wunderground v.1.15,2013-01-26 08:30:00,
2013-01-26 03:40:00,12.3,1.7,29.89,ESE,114,0.0,0.0,62,0.00,,,0.00,Wunderground v.1.15,2013-01-26 08:40:00,
2013-01-26 03:50:00,12.3,2.1,29.89,ESE,113,0.0,0.0,63,0.00,,,0.00,Wunderground v.1.15,2013-01-26 08:50:00,
2013-01-26 04:00:00,12.3,2.4,29.89,ESE,113,0.0,0.0,64,0.00,,,0.00,Wunderground v.1.15,2013-01-26 09:00:00,
2013-01-26 04:10:00,12.2,0.9,29.88,SE,131,0.0,0.0,60,0.00,,,0.00,Wunderground v.1.15,2013-01-26 09:10:00,
2013-01-26 04:20:00,12.2,0.6,29.88,ENE,77,0.0,1.0,59,0.00,,,0.00,Wunderground v.1.15,2013-01-26 09:20:00,
2013-01-26 04:30:00,12.1,-0.2,29.88,ENE,78,0.0,0.0,57,0.00,,,0.00,Wunderground v.1.15,2013-01-26 09:30:00,
2013-01-26 04:40:00,11.9,-0.1,29.88,ENE,77,0.0,0.0,58,0.00,,,0.00,Wunderground v.1.15,2013-01-26 09:40:00,
2013-01-26 04:50:00,11.7,-1.0,29.88,East,88,1.0,1.0,56,0.00,,,0.00,Wunderground v.1.15,2013-01-26 09:50:00,
2013-01-26 05:00:00,11.5,-0.8,29.88,ENE,75,0.0,1.0,57,0.00,,,0.00,Wunderground v.1.15,2013-01-26 10:00:00,
2013-01-26 05:10:00,11.3,-1.4,29.88,East,92,1.0,1.0,56,0.00,,,0.00,Wunderground v.1.15,2013-01-26 10:10:00,
2013-01-26 05:20:00,11.1,-1.9,29.88,ESE,104,1.0,1.0,55,0.00,,,0.00,Wunderground v.1.15,2013-01-26 10:20:00,
2013-01-26 05:30:00,10.8,-1.5,29.88,East,90,1.0,1.0,57,0.00,,,0.00,Wunderground v.1.15,2013-01-26 10:30:00,
2013-01-26 05:40:00,10.4,-1.5,29.88,East,89,0.0,0.0,58,0.00,,,0.00,Wunderground v.1.15,2013-01-26 10:40:00,
2013-01-26 05:50:00,10.1,-1.4,29.89,ENE,78,1.0,1.0,59,0.00,,,0.00,Wunderground v.1.15,2013-01-26 10:50:00,
2013-01-26 06:00:00,9.8,-1.7,29.89,East,96,1.0,1.0,59,0.00,,,0.00,Wunderground v.1.15,2013-01-26 11:00:00,
2013-01-26 06:10:00,9.6,-2.2,29.89,East,100,1.0,1.0,58,0.00,,,0.00,Wunderground v.1.15,2013-01-26 11:10:00,
2013-01-26 06:20:00,9.4,-1.7,29.89,East,101,0.0,0.0,60,0.00,,,0.00,Wunderground v.1.15,2013-01-26 11:20:00,
2013-01-26 06:30:00,9.2,-1.9,29.89,East,101,0.0,1.0,60,0.00,,,0.00,Wunderground v.1.15,2013-01-26 11:30:00,
2013-01-26 06:40:00,9.0,-2.4,29.89,ENE,78,0.0,0.0,59,0.00,,,0.00,Wunderground v.1.15,2013-01-26 11:40:00,
2013-01-26 06:50:00,8.9,-2.2,29.90,ESE,106,0.0,0.0,60,0.00,,,0.00,Wunderground v.1.15,2013-01-26 11:50:00,
2013-01-26 07:00:00,8.9,-2.2,29.90,ENE,78,0.0,0.0,60,0.00,,,0.00,Wunderground v.1.15,2013-01-26 12:00:00,
2013-01-26 07:10:00,8.8,-1.9,29.90,East,96,0.0,1.0,61,0.00,,,0.00,Wunderground v.1.15,2013-01-26 12:10:00,
2013-01-26 07:20:00,8.8,-1.6,29.90,NE,42,1.0,1.0,62,0.00,,,0.00,Wunderground v.1.15,2013-01-26 12:20:00,
2013-01-26 07:30:00,8.8,-1.6,29.90,NE,44,0.0,0.0,62,0.00,,,0.00,Wunderground v.1.15,2013-01-26 12:30:00,
2013-01-26 07:40:00,9.1,-1.3,29.91,East,84,1.0,1.0,62,0.00,,,0.00,Wunderground v.1.15,2013-01-26 12:40:00,
2013-01-26 07:50:00,9.4,-1.4,29.91,SE,132,0.0,1.0,61,0.00,,,0.00,Wunderground v.1.15,2013-01-26 12:50:00,
2013-01-26 08:00:00,10.0,-0.8,29.91,East,92,1.0,1.0,61,0.00,,,0.00,Wunderground v.1.15,2013-01-26 13:00:00,
2013-01-26 08:10:00,10.6,-0.6,29.92,ESE,112,1.0,3.0,60,0.00,,,0.00,Wunderground v.1.15,2013-01-26 13:10:00,
2013-01-26 08:20:00,11.3,-0.6,29.92,ESE,123,2.0,2.0,58,0.00,,,0.00,Wunderground v.1.15,2013-01-26 13:20:00,
2013-01-26 08:30:00,11.8,-0.9,29.91,ENE,65,3.0,3.0,56,0.00,,,0.00,Wunderground v.1.15,2013-01-26 13:30:00,
2013-01-26 08:40:00,12.6,-0.5,29.91,ESE,110,2.0,2.0,55,0.00,,,0.00,Wunderground v.1.15,2013-01-26 13:40:00,
2013-01-26 08:50:00,12.9,-0.6,29.91,East,99,2.0,3.0,54,0.00,,,0.00,Wunderground v.1.15,2013-01-26 13:50:00,
2013-01-26 09:00:00,12.8,-0.7,29.92,ENE,72,3.0,7.0,54,0.00,,,0.00,Wunderground v.1.15,2013-01-26 14:00:00,
2013-01-26 09:10:00,12.6,-0.9,29.92,SE,131,3.0,3.0,54,0.00,,,0.00,Wunderground v.1.15,2013-01-26 14:10:00,
2013-01-26 09:20:00,12.7,-1.2,29.92,ESE,110,3.0,3.0,53,0.00,,,0.00,Wunderground v.1.15,2013-01-26 14:20:00,
2013-01-26 09:30:00,12.8,-1.1,29.92,SE,128,3.0,3.0,53,0.00,,,0.00,Wunderground v.1.15,2013-01-26 14:30:00,
2013-01-26 09:40:00,13.0,-1.4,29.91,ESE,110,3.0,3.0,52,0.00,,,0.00,Wunderground v.1.15,2013-01-26 14:40:00,
2013-01-26 09:50:00,13.2,-1.2,29.91,SE,126,3.0,4.0,52,0.00,,,0.00,Wunderground v.1.15,2013-01-26 14:50:00,
2013-01-26 10:00:00,13.4,-1.4,29.91,SE,124,4.0,4.0,51,0.00,,,0.00,Wunderground v.1.15,2013-01-26 15:00:00,
2013-01-26 10:10:00,14.0,-1.3,29.90,ESE,120,3.0,3.0,50,0.00,,,0.00,Wunderground v.1.15,2013-01-26 15:10:00,
2013-01-26 10:20:00,14.5,-1.7,29.90,East,101,4.0,4.0,48,0.00,,,0.00,Wunderground v.1.15,2013-01-26 15:20:00,
2013-01-26 10:30:00,15.0,-1.2,29.90,East,84,4.0,4.0,48,0.00,,,0.00,Wunderground v.1.15,2013-01-26 15:30:00,
2013-01-26 10:40:00,15.6,-1.1,29.89,SSE,153,4.0,4.0,47,0.00,,,0.00,Wunderground v.1.15,2013-01-26 15:40:00,
2013-01-26 10:50:00,16.2,-1.9,29.89,ENE,65,4.0,4.0,44,0.00,,,0.00,Wunderground v.1.15,2013-01-26 15:50:00,
2013-01-26 11:00:00,16.8,-1.9,29.89,ESE,122,3.0,3.0,43,0.00,,,0.00,Wunderground v.1.15,2013-01-26 16:00:00,
2013-01-26 11:10:00,17.1,-2.1,29.89,ENE,73,3.0,4.0,42,0.00,,,0.00,Wunderground v.1.15,2013-01-26 16:10:00,
2013-01-26 11:20:00,17.3,-1.9,29.88,East,88,4.0,4.0,42,0.00,,,0.00,Wunderground v.1.15,2013-01-26 16:20:00,
2013-01-26 11:30:00,17.7,-1.5,29.87,ESE,106,3.0,5.0,42,0.00,,,0.00,Wunderground v.1.15,2013-01-26 16:30:00,
2013-01-26 11:40:00,18.3,-1.0,29.87,ENE,65,3.0,5.0,42,0.00,,,0.00,Wunderground v.1.15,2013-01-26 16:40:00,
2013-01-26 11:50:00,18.4,-0.9,29.87,East,84,4.0,5.0,42,0.00,,,0.00,Wunderground v.1.15,2013-01-26 16:50:00,
2013-01-26 12:00:00,18.1,-2.2,29.86,East,101,5.0,5.0,40,0.00,,,0.00,Wunderground v.1.15,2013-01-26 17:00:00,
2013-01-26 12:10:00,18.3,-1.5,29.85,East,81,4.0,4.0,41,0.00,,,0.00,Wunderground v.1.15,2013-01-26 17:10:00,
2013-01-26 12:20:00,19.0,-0.9,29.85,East,86,3.0,6.0,41,0.00,,,0.00,Wunderground v.1.15,2013-01-26 17:20:00,
2013-01-26 12:30:00,19.0,-1.4,29.85,ESE,105,4.0,4.0,40,0.00,,,0.00,Wunderground v.1.15,2013-01-26 17:30:00,
2013-01-26 12:40:00,19.4,-1.0,29.85,NNE,30,4.0,4.0,40,0.00,,,0.00,Wunderground v.1.15,2013-01-26 17:40:00,
2013-01-26 12:50:00,19.6,-1.9,29.85,SE,129,4.0,5.0,38,0.00,,,0.00,Wunderground v.1.15,2013-01-26 17:50:00,
2013-01-26 13:00:00,19.4,-2.1,29.85,ESE,110,5.0,5.0,38,0.00,,,0.00,Wunderground v.1.15,2013-01-26 18:00:00,
2013-01-26 13:10:00,19.6,-2.5,29.84,ESE,110,4.0,8.0,37,0.00,,,0.00,Wunderground v.1.15,2013-01-26 18:10:00,
2013-01-26 13:20:00,19.5,-2.6,29.84,ESE,102,5.0,8.0,37,0.00,,,0.00,Wunderground v.1.15,2013-01-26 18:20:00,
2013-01-26 13:30:00,19.6,-2.5,29.84,SSE,155,4.0,5.0,37,0.00,,,0.00,Wunderground v.1.15,2013-01-26 18:30:00,
2013-01-26 13:40:00,20.1,-2.1,29.83,SE,137,3.0,7.0,37,0.00,,,0.00,Wunderground v.1.15,2013-01-26 18:40:00,
2013-01-26 13:50:00,20.0,-3.3,29.83,SSE,153,5.0,5.0,35,0.00,,,0.00,Wunderground v.1.15,2013-01-26 18:50:00,
2013-01-26 14:00:00,20.0,-2.7,29.83,ESE,117,4.0,6.0,36,0.00,,,0.00,Wunderground v.1.15,2013-01-26 19:00:00,
2013-01-26 14:10:00,20.0,-2.7,29.83,ESE,120,4.0,4.0,36,0.00,,,0.00,Wunderground v.1.15,2013-01-26 19:10:00,
2013-01-26 14:20:00,20.4,-1.8,29.83,East,101,3.0,3.0,37,0.00,,,0.00,Wunderground v.1.15,2013-01-26 19:20:00,
2013-01-26 14:30:00,20.3,-2.5,29.83,NE,46,4.0,5.0,36,0.00,,,0.00,Wunderground v.1.15,2013-01-26 19:30:00,
2013-01-26 14:40:00,20.2,-2.5,29.83,ESE,110,5.0,5.0,36,0.00,,,0.00,Wunderground v.1.15,2013-01-26 19:40:00,
2013-01-26 14:50:00,20.2,-2.5,29.84,ENE,70,4.0,4.0,36,0.00,,,0.00,Wunderground v.1.15,2013-01-26 19:50:00,
2013-01-26 15:00:00,20.2,-2.5,29.84,ENE,64,4.0,5.0,36,0.00,,,0.00,Wunderground v.1.15,2013-01-26 20:00:00,
2013-01-26 15:10:00,20.2,-3.1,29.84,East,96,4.0,4.0,35,0.00,,,0.00,Wunderground v.1.15,2013-01-26 20:10:00,
2013-01-26 15:20:00,20.3,-2.5,29.84,ESE,117,3.0,3.0,36,0.00,,,0.00,Wunderground v.1.15,2013-01-26 20:20:00,
2013-01-26 15:30:00,20.4,-3.6,29.85,SE,129,3.0,3.0,34,0.00,,,0.00,Wunderground v.1.15,2013-01-26 20:30:00,
2013-01-26 15:40:00,20.4,-4.2,29.85,East,86,4.0,10.0,33,0.00,,,0.00,Wunderground v.1.15,2013-01-26 20:40:00,
2013-01-26 15:50:00,20.2,-4.4,29.85,ENE,57,4.0,4.0,33,0.00,,,0.00,Wunderground v.1.15,2013-01-26 20:50:00,
2013-01-26 16:00:00,20.2,-4.4,29.86,East,100,4.0,4.0,33,0.00,,,0.00,Wunderground v.1.15,2013-01-26 21:00:00,
2013-01-26 16:10:00,19.8,-4.1,29.87,ENE,73,4.0,4.0,34,0.00,,,0.00,Wunderground v.1.15,2013-01-26 21:10:00,
2013-01-26 16:20:00,19.5,-3.2,29.87,ESE,115,3.0,6.0,36,0.00,,,0.00,Wunderground v.1.15,2013-01-26 21:20:00,
2013-01-26 16:30:00,19.3,-2.8,29.88,NNW,346,3.0,3.0,37,0.00,,,0.00,Wunderground v.1.15,2013-01-26 21:30:00,
2013-01-26 16:40:00,19.0,-2.5,29.88,ENE,65,1.0,1.0,38,0.00,,,0.00,Wunderground v.1.15,2013-01-26 21:40:00,
2013-01-26 16:50:00,18.7,-2.8,29.88,East,87,1.0,1.0,38,0.00,,,0.00,Wunderground v.1.15,2013-01-26 21:50:00,
2013-01-26 17:00:00,18.5,-2.4,29.88,ENE,63,1.0,4.0,39,0.00,,,0.00,Wunderground v.1.15,2013-01-26 22:00:00,
2013-01-26 17:10:00,18.3,-2.6,29.88,East,94,1.0,1.0,39,0.00,,,0.00,Wunderground v.1.15,2013-01-26 22:10:00,
2013-01-26 17:20:00,18.2,-2.7,29.88,ESE,109,2.0,3.0,39,0.00,,,0.00,Wunderground v.1.15,2013-01-26 22:20:00,
2013-01-26 17:30:00,18.0,-2.8,29.89,ESE,110,2.0,2.0,39,0.00,,,0.00,Wunderground v.1.15,2013-01-26 22:30:00,
2013-01-26 17:40:00,17.8,-3.0,29.89,ESE,120,2.0,2.0,39,0.00,,,0.00,Wunderground v.1.15,2013-01-26 22:40:00,
2013-01-26 17:50:00,17.7,-3.1,29.89,ENE,65,2.0,2.0,39,0.00,,,0.00,Wunderground v.1.15,2013-01-26 22:50:00,
2013-01-26 18:00:00,17.6,-2.7,29.89,NNE,26,2.0,2.0,40,0.00,,,0.00,Wunderground v.1.15,2013-01-26 23:00:00,
2013-01-26 18:10:00,17.3,-2.9,29.90,East,80,3.0,4.0,40,0.00,,,0.00,Wunderground v.1.15,2013-01-26 23:10:00,
2013-01-26 18:20:00,16.9,-3.3,29.90,North,351,3.0,3.0,40,0.00,,,0.00,Wunderground v.1.15,2013-01-26 23:20:00,
2013-01-26 18:30:00,16.5,-4.2,29.91,NNE,32,4.0,4.0,39,0.00,,,0.00,Wunderground v.1.15,2013-01-26 23:30:00,
2013-01-26 18:40:00,16.1,-3.5,29.91,North,11,3.0,5.0,41,0.00,,,0.00,Wunderground v.1.15,2013-01-26 23:40:00,
2013-01-26 18:50:00,15.7,-3.9,29.91,ESE,112,4.0,4.0,41,0.00,,,0.00,Wunderground v.1.15,2013-01-26 23:50:00,
2013-01-26 19:00:00,15.5,-3.5,29.91,East,83,3.0,3.0,42,0.00,,,0.00,Wunderground v.1.15,2013-01-27 00:00:00,
2013-01-26 19:10:00,15.3,-3.7,29.91,ESE,114,3.0,3.0,42,0.00,,,0.00,Wunderground v.1.15,2013-01-27 00:10:00,
2013-01-26 19:20:00,15.2,-3.8,29.92,ESE,117,2.0,2.0,42,0.00,,,0.00,Wunderground v.1.15,2013-01-27 00:20:00,
2013-01-26 19:30:00,15.0,-4.5,29.92,East,96,4.0,4.0,41,0.00,,,0.00,Wunderground v.1.15,2013-01-27 00:30:00,
2013-01-26 19:40:00,14.9,-4.1,29.92,ENE,60,3.0,5.0,42,0.00,,,0.00,Wunderground v.1.15,2013-01-27 00:40:00,
2013-01-26 19:50:00,14.8,-4.7,29.92,East,83,2.0,4.0,41,0.00,,,0.00,Wunderground v.1.15,2013-01-27 00:50:00,
2013-01-26 20:00:00,14.7,-4.3,29.93,ESE,105,3.0,4.0,42,0.00,,,0.00,Wunderground v.1.15,2013-01-27 01:00:00,
2013-01-26 20:10:00,14.6,-4.4,29.92,East,81,4.0,4.0,42,0.00,,,0.00,Wunderground v.1.15,2013-01-27 01:10:00,
2013-01-26 20:20:00,14.5,-4.5,29.93,ENE,70,2.0,2.0,42,0.00,,,0.00,Wunderground v.1.15,2013-01-27 01:20:00,
2013-01-26 20:30:00,14.4,-3.1,29.93,ESE,106,2.0,2.0,45,0.00,,,0.00,Wunderground v.1.15,2013-01-27 01:30:00,
2013-01-26 20:40:00,14.3,-3.2,29.94,NNE,18,1.0,1.0,45,0.00,,,0.00,Wunderground v.1.15,2013-01-27 01:40:00,
2013-01-26 20:50:00,14.1,-4.3,29.94,East,80,2.0,2.0,43,0.00,,,0.00,Wunderground v.1.15,2013-01-27 01:50:00,
2013-01-26 21:00:00,14.0,-3.5,29.94,East,79,1.0,3.0,45,0.00,,,0.00,Wunderground v.1.15,2013-01-27 02:00:00,
2013-01-26 21:10:00,13.9,-4.0,29.94,East,96,2.0,2.0,44,0.00,,,0.00,Wunderground v.1.15,2013-01-27 02:10:00,
2013-01-26 21:20:00,13.8,-4.6,29.94,NE,53,3.0,3.0,43,0.00,,,0.00,Wunderground v.1.15,2013-01-27 02:20:00,
2013-01-26 21:30:00,13.7,-4.2,29.94,NNE,20,2.0,2.0,44,0.00,,,0.00,Wunderground v.1.15,2013-01-27 02:30:00,
2013-01-26 21:40:00,13.6,-4.8,29.95,ESE,110,2.0,2.0,43,0.00,,,0.00,Wunderground v.1.15,2013-01-27 02:40:00,
2013-01-26 21:50:00,13.4,-4.5,29.95,NNE,32,1.0,1.0,44,0.00,,,0.00,Wunderground v.1.15,2013-01-27 02:50:00,
2013-01-26 22:00:00,13.4,-4.5,29.95,ESE,122,2.0,2.0,44,0.00,,,0.00,Wunderground v.1.15,2013-01-27 03:00:00,
2013-01-26 22:10:00,13.2,-4.7,29.95,SSE,160,2.0,5.0,44,0.00,,,0.00,Wunderground v.1.15,2013-01-27 03:10:00,
2013-01-26 22:20:00,13.1,-4.8,29.95,ESE,105,2.0,4.0,44,0.00,,,0.00,Wunderground v.1.15,2013-01-27 03:20:00,
2013-01-26 22:30:00,13.0,-4.4,29.95,ESE,110,1.0,1.0,45,0.00,,,0.00,Wunderground v.1.15,2013-01-27 03:30:00,
2013-01-26 22:40:00,12.9,-4.0,29.95,ESE,113,1.0,4.0,46,0.00,,,0.00,Wunderground v.1.15,2013-01-27 03:40:00,
2013-01-26 22:50:00,12.8,-3.2,29.95,NNE,23,2.0,2.0,48,0.00,,,0.00,Wunderground v.1.15,2013-01-27 03:50:00,
2013-01-26 23:00:00,12.6,-3.0,29.96,NNE,33,1.0,2.0,49,0.00,,,0.00,Wunderground v.1.15,2013-01-27 04:00:00,
2013-01-26 23:10:00,12.5,-2.6,29.96,ENE,60,1.0,2.0,50,0.00,,,0.00,Wunderground v.1.15,2013-01-27 04:10:00,
2013-01-26 23:20:00,12.4,-2.3,29.96,East,84,1.0,1.0,51,0.00,,,0.00,Wunderground v.1.15,2013-01-27 04:20:00,
2013-01-26 23:30:00,12.2,-2.1,29.96,NE,47,1.0,2.0,52,0.00,,,0.00,Wunderground v.1.15,2013-01-27 04:30:00,
2013-01-26 23:40:00,12.1,-1.8,29.96,NE,53,1.0,1.0,53,0.00,,,0.00,Wunderground v.1.15,2013-01-27 04:40:00,
2013-01-26 23:50:00,11.8,-1.7,29.96,NE,49,1.0,1.0,54,0.00,,,0.00,Wunderground v.1.15,2013-01-27 04:50:00,